PDT,Max TemperatureF,Mean TemperatureF,Min TemperatureF,Max Dew PointF,MeanDew PointF,Min DewpointF,Max Humidity, Mean Humidity, Min Humidity, Max Sea Level PressureIn, Mean Sea Level PressureIn, Min Sea Level PressureIn, Max VisibilityMiles, Mean VisibilityMiles, Min VisibilityMiles, Max Wind SpeedMPH, Mean Wind SpeedMPH, Max Gust SpeedMPH,PrecipitationIn, CloudCover, Events, WindDirDegrees
2011-10-1,83,71,58,46,43,39,48,38,28,29.90,29.79,29.71,10,10,5,17,7,24,T,1,Rain,326
2011-10-2,78,65,51,45,41,38,68,47,25,29.99,29.90,29.80,10,10,10,8,3,13,0.00,0,,156
2011-10-3,77,67,56,42,40,37,55,40,24,29.83,29.78,29.74,10,9,2,17,5,24,0.00,0,,250
2011-10-4,62,57,52,49,45,40,77,62,47,29.76,29.69,29.52,10,10,10,13,5,17,0.01,4,Rain,49
2011-10-5,58,53,47,52,47,42,96,79,62,29.65,29.51,29.45,10,10,8,15,4,21,0.15,8,Rain,248
2011-10-6,50,48,46,46,43,42,93,84,74,29.92,29.78,29.64,10,10,8,12,4,14,0.30,8,Rain,161
2011-10-7,61,55,49,47,43,38,93,68,42,30.14,30.01,29.91,10,10,10,17,5,23,T,8,Rain,229
2011-10-8,67,57,47,45,42,39,100,70,40,30.28,30.18,30.11,10,10,10,13,5,16,0.00,2,,84
2011-10-9,62,53,44,43,41,39,83,65,46,30.11,30.01,29.84,10,10,8,10,3,14,0.00,2,,93
2011-10-10,59,53,46,50,46,41,89,78,67,29.84,29.72,29.65,10,10,6,15,4,25,0.13,5,Rain,153
2011-10-11,67,60,52,50,43,36,89,61,32,30.08,29.85,29.69,10,10,9,26,7,36,0.07,5,Rain,229
2011-10-12,64,57,49,42,39,36,68,52,36,30.22,30.17,30.11,10,10,9,13,3,16,0.00,5,,275
2011-10-13,57,53,48,46,42,39,83,67,51,30.19,30.14,30.08,10,10,7,10,1,22,0.02,3,Rain,163
2011-10-14,62,56,50,47,45,44,80,66,52,30.07,29.99,29.94,10,10,8,10,2,12,0.01,8,Rain,173
2011-10-15,58,54,50,49,47,45,93,80,67,30.10,30.05,29.95,10,9,3,10,3,14,0.12,7,Rain,243
2011-10-16,59,51,43,48,46,39,93,75,57,30.30,30.08,30.00,10,8,2,13,3,16,0.14,6,Rain,286
2011-10-17,60,49,38,45,41,37,100,79,57,30.46,30.40,30.32,10,5,0,7,3,9,0.00,5,Fog,117
2011-10-18,65,53,40,41,39,37,86,63,40,30.42,30.28,30.05,10,10,8,12,6,23,0.00,0,,93
2011-10-19,60,51,42,44,41,39,89,71,53,30.05,30.01,29.97,10,9,7,9,3,10,0.00,1,,110
2011-10-20,61,52,43,46,43,40,92,74,55,30.12,30.08,30.05,10,8,5,12,2,20,0.00,3,,151
2011-10-21,59,52,45,51,48,43,93,80,67,30.22,30.17,30.11,10,8,5,7,2,8,0.01,5,Rain,101
2011-10-22,70,59,47,51,48,45,100,70,40,30.23,30.18,30.11,10,4,0,9,3,13,T,5,Fog,127
2011-10-23,68,59,50,51,47,45,83,66,48,30.14,30.08,29.98,10,10,10,10,2,15,0.00,4,,337
2011-10-24,57,49,41,48,34,27,83,59,35,30.28,30.12,29.95,10,9,1,24,8,31,T,4,,288
2011-10-25,54,43,32,35,30,27,85,63,41,30.44,30.39,30.29,10,10,5,12,3,14,0.00,1,,201
2011-10-26,52,40,28,34,31,26,92,70,48,30.46,30.33,30.19,10,10,10,9,3,14,0.00,3,,80
2011-10-27,57,46,34,36,32,28,79,57,35,30.29,30.26,30.20,10,10,10,8,2,,0.00,3,,110
2011-10-28,60,48,35,38,31,22,76,49,22,30.27,30.10,29.96,10,10,10,24,9,33,T,3,Rain,121
2011-10-29,61,51,40,43,38,33,74,55,36,30.28,30.19,30.00,10,10,10,7,4,8,0.00,2,,192
2011-10-30,59,47,35,48,41,34,100,74,47,30.27,30.13,30.01,10,9,5,8,2,9,0.04,4,Rain,45
2011-10-31,55,48,40,49,34,28,100,68,35,30.30,30.19,30.03,10,10,3,23,8,29,T,4,,274